Regional Weather Roundup
Issued by NWS

Home | Current Version | Previous Version | Graphics & Text | Print | Product List | Glossary On
Versions: 1 2 3 4 5 6 7 8 9 10 11 12 13 14 15 16 17 18 19 20 21 22 23 24 25 26 27 28 29 30 31 32 33 34 35 36 37 38 39 40 41 42 43 44 45 46 47 48 49 50
000
ASUS45 KABQ 171510
RWRNM
WEATHER ROUNDUP FOR NEW MEXICO
NATIONAL WEATHER SERVICE ALBUQUERQUE NM
800 AM MST WED DEC 17 2014

NOTE: "FAIR" MEANS FEW OR NO CLOUDS BELOW 12,000 FEET AGL WITH NO
       SIGNIFICANT WEATHER OR OBSTRUCTIONS TO VISION.

      THIS PRODUCT IS RELEASED AS TWO VERSIONS.  ONE VERSION NEAR
      THE TOP OF THE HOUR CONTAINING PRELIMINARY DATA FROM ALBUQUERQUE
      AND OTHER STATIONS.  A FINAL VERSION WITH ADDITIONAL DATA IS
      ISSUED ABOUT 10 MINUTES AFTER THE HOUR.

NMZ501-503-504-510>518-171600-
NORTHWEST PLATEAU/NORTHCENTRAL MOUNTAINS

CITY           SKY/WX    TMP DP  RH WIND       PRES   REMARKS
FARMINGTON     PTCLDY    33  26  75 E6        29.98R WCI  28
LOS ALAMOS     SNOW      29  29 100 S5        30.01S VSB 1/2 WCI  24
SANTA FE       LGT SNOW  30  27  88 SE5       30.01S VSB 3/4 WCI  25
TAOS           MOCLDY    21  18  86 CALM      30.01R
ANGEL FIRE     PTSUNNY   15  12  88 CALM      30.02S

$$
NMZ402-403-502-505>509-171600-
WESTCENTRAL MOUNTAINS/SOUTHWEST MOUNTAINS

CITY           SKY/WX    TMP DP  RH WIND       PRES   REMARKS
GALLUP         SNOW      32  30  92 NE3       30.00F VSB 1/2
GRANTS         CLOUDY    29  29  99 CALM      30.02S
SILVER CITY    MOCLDY    41  32  70 W8        30.07S

$$
NMZ407-409-411-412-171600-
SOUTHERN DESERTS

CITY           SKY/WX    TMP DP  RH WIND       PRES   REMARKS
LORDSBURG      CLOUDY    43  32  65 CALM      30.06S
DEMING         PTCLDY    42  32  67 W7        30.06R
LAS CRUCES     CLEAR     40  29  64 SW3       30.07R
HOLLOMAN AFB   PTCLDY    37  26  66 S2        30.04S
ALAMOGORDO     CLOUDY    37  28  70 S5        30.06R WCI  34
T OR C         CLOUDY    38  26  62 W5        30.03R WCI  34

$$
NMZ519>523-171600-
CENTRAL VALLEYS/CENTRAL HIGHLANDS

CITY           SKY/WX    TMP DP  RH WIND       PRES   REMARKS
ALBUQUERQUE    LGT RAIN  33  32  96 CALM      30.04S FOG
DOUBLE EAGLE   LGT SNOW  30  30 100 CALM      30.04S VSB 1
MORIARTY ARPT  CLOUDY    28  26  92 NE3       30.04F
CLINES CORNERS FLURRIES  31  25  78 NW9       29.99F WCI  23
BELEN          LGT RAIN  33  33  99 N5        30.03S WCI  29
SOCORRO        CLOUDY    34  27  76 CALM      30.04S

$$
NMZ524>526-539-540-171600-
SOUTHCENTRAL MOUNTAINS

CITY           SKY/WX    TMP DP  RH WIND       PRES   REMARKS
RUIDOSO        PTCLDY    34  28  80 W6        30.04S WCI  29

$$
NMZ527>531-171600-
NORTHEAST HIGHLANDS/NORTHEAST PLAINS

CITY           SKY/WX    TMP DP  RH WIND       PRES   REMARKS
LAS VEGAS      CLOUDY    30  21  69 S10       29.99R WCI  21
RATON          MOCLDY    19  16  88 NE8       29.96F WCI   9
CLAYTON        CLOUDY    31  25  78 SW7       29.99S WCI  24

$$
NMZ532>537-171600-
EASTCENTRAL PLAINS

CITY           SKY/WX    TMP DP  RH WIND       PRES   REMARKS
TUCUMCARI      CLOUDY    35  25  66 SW6       30.03R WCI  30
CANNON AFB     NOT AVBL
CLOVIS AIRPORT CLOUDY    39  27  60 SE9       30.05F WCI  33

$$
NMZ028-029-538-171600-
SOUTHEAST PLAINS

CITY           SKY/WX    TMP DP  RH WIND       PRES   REMARKS
ROSWELL        PTSUNNY   34  26  72 N6        30.05S WCI  29
ARTESIA        MOSUNNY   34  28  80 CALM      30.06S
CARLSBAD       MOSUNNY   37  29  72 W3        30.05R
HOBBS          MOSUNNY   45  32  61 SE8       30.06S


$$



USA.gov is the U.S. government's official web portal to all federal, state and local government web resources and services.